Tracy, MN

10:55 AM CDT on May 23, 2017 (GMT -0500)
Tracy

Weather History for KTKC - March, 2013

Change the Weather History Date:

Friday, March 15, 2013

  Actual Average (KMML) Record (KMML)
Temperature  
Mean Temperature 31 °F -  
Max Temperature 33 °F 40 °F 77 °F (2015)
Min Temperature 27 °F 20 °F -4 °F (1960)
Degree Days  
Heating Degree Days 34    
Moisture  
Dew Point 30 °F    
Average Humidity 95    
Maximum Humidity 98    
Minimum Humidity 88    
Precipitation  
Precipitation 0.00 in - - ()
Sea Level Pressure  
Sea Level Pressure 29.89 in    
Wind  
Wind Speed 4 mph (North)    
Max Wind Speed 15 mph    
Max Gust Speed 18 mph    
Visibility 3 miles    
Events Fog    
Averages and records for this station are not official NWS values.
T = Trace of Precipitation, MM = Missing Value Source: NWS Daily Summary

Daily Weather History Graph

Daily Weather History Graph

Search for Another Location

Airport or City:

Trip Planner

Search our weather history database for the weather conditions in past years. The results will help you decide how hot, cold, wet, or windy it might be!

Date:

Astronomy

Mar. 15, 2013 Rise Set
Actual Time 7:34 AM CDT 7:28 PM CDT
Civil Twilight 7:05 AM CDT 7:57 PM CDT
Nautical Twilight 6:31 AM CDT 8:31 PM CDT
Astronomical Twilight 5:57 AM CDT 9:05 PM CDT
Moon 9:15 AM CDT (3/15) 11:54 PM CDT (3/15)
Length of Visible Light 12h 52m
Length of Day
11h 54m
Waxing Crescent, 15% of the Moon is Illuminated
Mar 15
Waxing Crescent
Mar 19
First Quarter
Mar 27
Full
Apr 2
Last Quarter
Apr 10
New

Hourly Weather History & Observations

Time (CDT) Temp. Windchill Dew Point Humidity Pressure Visibility Wind Dir Wind Speed Gust Speed Precip Events Conditions
12:17 AM 35.2 °F - 32.0 °F 88% 29.98 in 10.0 mi Calm Calm - N/A   Clear
12:38 AM 33.6 °F - 31.6 °F 92% 29.99 in 10.0 mi Calm Calm - N/A   Clear
12:58 AM 32.9 °F - 31.1 °F 93% 29.99 in 10.0 mi Calm Calm - N/A   Scattered Clouds
1:18 AM 33.1 °F - 31.1 °F 92% 29.99 in 10.0 mi Calm Calm - N/A   Scattered Clouds
1:38 AM 33.3 °F - 30.9 °F 91% 29.99 in 10.0 mi Calm Calm - N/A   Scattered Clouds
2:18 AM 33.3 °F - 30.6 °F 90% 29.99 in 10.0 mi Calm Calm - N/A   Mostly Cloudy
2:37 AM 33.1 °F - 30.6 °F 90% 29.99 in 10.0 mi Calm Calm - N/A   Overcast
2:57 AM 32.9 °F 24.7 °F 30.2 °F 90% 29.99 in 10.0 mi NNW 10.4 mph - N/A   Overcast
3:18 AM 32.4 °F 24.0 °F 30.2 °F 92% 29.99 in 10.0 mi NNW 10.4 mph - N/A   Overcast
3:38 AM 32.0 °F 23.6 °F 29.8 °F 92% 30.00 in 7.0 mi NNW 10.4 mph 17.3 mph N/A   Overcast
3:57 AM 32.0 °F 24.2 °F 29.7 °F 91% 30.00 in 7.0 mi NNW 9.2 mph - N/A   Overcast
4:17 AM 31.5 °F 25.8 °F 29.3 °F 92% 29.98 in 5.0 mi NNW 5.8 mph - N/A   Overcast
4:38 AM 31.1 °F - 29.3 °F 93% 29.97 in 5.0 mi Calm Calm - N/A   Overcast
4:58 AM 31.1 °F - 29.3 °F 93% 29.96 in 5.0 mi Calm Calm - N/A   Overcast
5:18 AM 31.1 °F - 29.1 °F 92% 29.94 in 5.0 mi Calm Calm - N/A   Overcast
5:37 AM 30.9 °F - 29.3 °F 94% 29.93 in 4.0 mi Calm Calm - N/A   Overcast
5:57 AM 30.7 °F - 29.1 °F 94% 29.92 in 4.0 mi Calm Calm - N/A   Overcast
6:17 AM 30.0 °F 23.2 °F 28.6 °F 94% 29.89 in 3.0 mi NNE 6.9 mph - N/A   Overcast
6:38 AM 30.0 °F 21.7 °F 28.8 °F 95% 29.89 in 3.0 mi NNE 9.2 mph - N/A   Overcast
6:58 AM 29.8 °F 20.9 °F 28.4 °F 94% 29.89 in 3.0 mi NNE 10.4 mph - N/A   Overcast
7:18 AM 29.3 °F 21.5 °F 28.0 °F 95% 29.89 in 4.0 mi NNE 8.1 mph - N/A   Overcast
7:38 AM 29.3 °F 20.8 °F 28.0 °F 95% 29.89 in 3.0 mi NNE 9.2 mph - N/A   Overcast
7:57 AM 29.1 °F 19.4 °F 27.9 °F 95% 29.89 in 1.8 mi North 11.5 mph - N/A   Overcast
8:16 AM 28.8 °F 20.9 °F 27.5 °F 95% 29.89 in 1.2 mi NNE 8.1 mph - N/A   Overcast
8:38 AM 28.9 °F 20.4 °F 27.7 °F 95% 29.89 in 1.2 mi North 9.2 mph - N/A   Overcast
8:58 AM 28.0 °F 19.3 °F 27.1 °F 96% 29.89 in 1.2 mi North 9.2 mph - N/A   Overcast
9:18 AM 27.9 °F 18.4 °F 27.0 °F 96% 29.90 in 1.5 mi North 10.4 mph - N/A   Overcast
9:38 AM 27.9 °F 20.6 °F 27.0 °F 96% 29.89 in 1.0 mi North 6.9 mph - N/A   Overcast
9:57 AM 27.5 °F 19.3 °F 26.6 °F 96% 29.89 in 1.0 mi North 8.1 mph - N/A   Overcast
10:18 AM 27.7 °F 20.4 °F 26.8 °F 96% 29.89 in 0.8 mi North 6.9 mph - N/A   Overcast
10:38 AM 28.0 °F 19.3 °F 27.1 °F 96% 29.89 in 0.8 mi North 9.2 mph - N/A   Overcast
10:58 AM 28.4 °F 21.2 °F 27.5 °F 96% 29.90 in 1.0 mi North 6.9 mph - N/A   Overcast
11:18 AM 28.9 °F 19.8 °F 28.0 °F 96% 29.89 in 1.0 mi North 10.4 mph - N/A   Overcast
11:38 AM 28.9 °F 20.4 °F 28.0 °F 96% 29.89 in 1.0 mi North 9.2 mph - N/A   Overcast
11:58 AM 29.1 °F 21.3 °F 28.2 °F 96% 29.89 in 1.2 mi North 8.1 mph - N/A   Overcast
12:17 PM 29.3 °F 21.5 °F 28.4 °F 96% 29.89 in 1.2 mi North 8.1 mph - N/A   Overcast
12:38 PM 29.7 °F - 28.8 °F 96% 29.89 in 1.0 mi Calm Calm - N/A   Overcast
12:58 PM 29.8 °F - 28.9 °F 96% 29.88 in 0.8 mi Calm Calm - N/A   Overcast
1:18 PM 30.2 °F - 29.3 °F 96% 29.87 in 0.8 mi Calm Calm - N/A   Overcast
1:38 PM 30.7 °F - 29.8 °F 96% 29.87 in 1.0 mi Calm Calm - N/A   Overcast
1:57 PM 31.1 °F - 30.2 °F 96% 29.85 in 1.0 mi Calm Calm - N/A   Overcast
2:17 PM 31.8 °F 24.6 °F 30.9 °F 96% 29.83 in 1.0 mi NE 8.1 mph - N/A   Overcast
2:37 PM 32.0 °F 25.6 °F 30.9 °F 96% 29.85 in 1.5 mi NE 6.9 mph - N/A   Overcast
2:58 PM 32.2 °F - 31.1 °F 96% 29.85 in 2.5 mi Calm Calm - N/A   Overcast
3:18 PM 32.0 °F - 30.9 °F 96% 29.84 in 3.0 mi Calm Calm - N/A   Overcast
3:38 PM 32.2 °F - 30.9 °F 95% 29.84 in 3.0 mi Calm Calm - N/A   Overcast
3:58 PM 32.4 °F - 30.7 °F 94% 29.83 in 4.0 mi Calm Calm - N/A   Overcast
4:17 PM 32.5 °F 26.2 °F 31.1 °F 94% 29.81 in 3.0 mi ENE 6.9 mph - N/A   Overcast
4:38 PM 32.2 °F 25.0 °F 31.1 °F 96% 29.80 in 2.0 mi ENE 8.1 mph - N/A   Overcast
4:58 PM 32.2 °F 25.0 °F 31.1 °F 96% 29.78 in 2.0 mi East 8.1 mph - N/A   Overcast
5:18 PM 32.2 °F - 31.1 °F 96% 29.81 in 1.8 mi Calm Calm - N/A   Overcast
5:37 PM 32.0 °F 26.4 °F 31.1 °F 96% 29.79 in 1.2 mi ENE 5.8 mph - N/A   Overcast
5:58 PM 32.0 °F 25.6 °F 31.1 °F 96% 29.78 in 1.0 mi East 6.9 mph - N/A   Overcast
6:18 PM 32.0 °F 25.6 °F 31.1 °F 96% 29.77 in 1.2 mi East 6.9 mph - N/A   Overcast
6:38 PM 32.0 °F - 31.1 °F 96% 29.81 in 1.0 mi Calm Calm - N/A   Overcast
6:58 PM 32.0 °F 24.8 °F 31.1 °F 96% 29.84 in 1.0 mi NNW 8.1 mph - N/A   Overcast
7:18 PM 31.6 °F 24.4 °F 30.7 °F 96% 29.84 in 0.5 mi North 8.1 mph - N/A Fog Light Freezing Fog
7:38 PM 31.5 °F - 30.6 °F 96% 29.82 in 0.8 mi Calm Calm - N/A   Overcast
7:58 PM 31.5 °F - 30.6 °F 96% 29.82 in 0.5 mi Calm Calm - N/A Fog Light Freezing Fog
8:17 PM 31.5 °F - 30.7 °F 97% 29.85 in 0.5 mi Calm Calm - N/A Fog Light Freezing Fog
8:38 PM 31.5 °F - 30.7 °F 97% 29.85 in 0.5 mi Calm Calm - N/A Fog Light Freezing Fog
8:58 PM 31.1 °F - 30.6 °F 98% 29.85 in 0.2 mi Calm Calm - N/A Fog Light Freezing Fog
9:17 PM 31.5 °F - 30.7 °F 97% 29.87 in 0.5 mi Calm Calm - N/A   Overcast
9:38 PM 31.3 °F 25.6 °F 30.6 °F 97% 29.87 in 0.8 mi North 5.8 mph - N/A   Overcast
9:58 PM 31.1 °F - 30.6 °F 98% 29.86 in 1.0 mi Calm Calm - N/A   Overcast
10:17 PM 31.1 °F - 30.6 °F 98% 29.88 in 1.0 mi Calm Calm - N/A   Overcast
10:37 PM 31.1 °F 23.1 °F 30.6 °F 98% 29.88 in 1.2 mi NNW 9.2 mph - N/A   Overcast
10:58 PM 29.1 °F 18.4 °F 28.4 °F 97% 29.89 in 2.5 mi NNW 13.8 mph - N/A   Overcast
11:18 PM 28.9 °F 18.6 °F 28.2 °F 97% 29.89 in 2.0 mi NNW 12.7 mph - N/A   Overcast
11:38 PM 28.4 °F 17.0 °F 27.9 °F 98% 29.89 in 1.8 mi NW 15.0 mph - N/A   Overcast
11:58 PM 28.0 °F 17.0 °F 27.3 °F 97% 29.89 in 1.5 mi NNW 13.8 mph 18.4 mph N/A   Overcast